Regional Weather Roundup
Issued by NWS Columbia, SC

Home | Current Version | Previous Version | Text Only | Print | Product List | Glossary On
Versions: 1 2 3 4 5 6 7 8 9 10 11 12 13 14 15 16 17 18 19 20 21 22 23 24 25 26 27 28 29 30 31 32 33 34 35 36 37 38 39 40 41 42 43 44 45 46 47 48 49 50
000
ASUS42 KCAE 290610
RWRCAE
REGIONAL WEATHER ROUNDUP
NATIONAL WEATHER SERVICE COLUMBIA SC
200 AM EDT THU JUN 29 2017

NOTE: "FAIR" INDICATES FEW OR NO CLOUDS BELOW 12,000 FEET WITH NO
SIGNIFICANT WEATHER AND/OR OBSTRUCTIONS TO VISIBILITY.

NOT ALL STATIONS ARE QUALITY CONTROLLED BY THE NATIONAL
WEATHER SERVICE. USE DATA WITH CAUTION...ESPECIALLY
DEWPOINT OBSERVATIONS.

SCZ001>056-GAZ040-063>065-077-290700-
...UPSTATE SOUTH CAROLINA...

CITY           SKY/WX    TMP DP  RH WIND       PRES   REMARKS
ANDERSON       PTCLDY    72  62  71 S6        30.18S
6HR MIN TEMP:  72; 6HR MAX TEMP:  81;

LIBERTY        CLEAR     64  62  93 SE5       30.18S
6HR MIN TEMP:  63; 6HR MAX TEMP:  79;

SPARTANBURG    MOCLDY    70  57  64 CALM      30.18S
CLEMSON        MOCLDY    72  63  73 CALM      30.19S
6HR MIN TEMP:  71; 6HR MAX TEMP:  79;

GREENVILLE     MOCLDY    74  59  59 S9        30.19F
6HR MIN TEMP:  73; 6HR MAX TEMP:  81;

GREENWOOD      PTCLDY    71  63  75 S8        30.19S
6HR MIN TEMP:  70; 6HR MAX TEMP:  79;

GREER          MOCLDY    67  60  78 SW5       30.18S
6HR MIN TEMP:  65; 6HR MAX TEMP:  78;

ROCK HILL      CLEAR     67  59  75 S5        30.19S
6HR MIN TEMP:  65; 6HR MAX TEMP:  81;

CHESTER        CLEAR     68  57  68 S6        30.19S
LAURENS        CLEAR     70  59  68 S7        30.18S


...CENTRAL SOUTH CAROLINA...

CITY           SKY/WX    TMP DP  RH WIND       PRES   REMARKS
COLUMBIA APT   CLEAR     74  58  57 CALM      30.16F
6HR MIN TEMP:  74; 6HR MAX TEMP:  84;

COLUMBIA OWENS CLEAR     71  62  73 CALM      30.18F
6HR MIN TEMP:  71; 6HR MAX TEMP:  84;

MCENTIRE ANGB  CLEAR     64  62  95 CALM      30.17F
6HR MIN TEMP:  64; 6HR MAX TEMP:  80;

ORANGEBURG     CLEAR     67  61  81 E3        30.17F
6HR MIN TEMP:  67; 6HR MAX TEMP:  82;

SUMTER SHAW    CLEAR     67  59  75 CALM      30.15F
6HR MIN TEMP:  66; 6HR MAX TEMP:  82;

NEWBERRY       PTCLDY    70  61  73 CALM      30.21S
AIKEN          FAIR      68  61  77 CALM      30.21S
BARNWELL       FAIR      72  66  83 CALM      30.16F
MANNING        FAIR      64  63  94 CALM      30.17F
CAMDEN         FAIR      70  59  68 CALM      30.18F
LANCASTER      PTCLDY    66  59  77 S3        30.19F
WINNSBORO      CLEAR     70  59  68 S5        30.19S


...EASTERN AND COASTAL SOUTH CAROLINA...

CITY           SKY/WX    TMP DP  RH WIND       PRES   REMARKS
MYRTLE BEACH   CLEAR     74  61  63 SE6       30.19F
6HR MIN TEMP:  74; 6HR MAX TEMP:  79;

N MYRTLE BCH   CLEAR     77  58  51 CALM      30.17F
6HR MIN TEMP:  77; 6HR MAX TEMP:  79;

CONWAY         FAIR      61  59  94 CALM      30.18F
HARTSVILLE     FAIR      64  59  82 CALM      30.19S
FLORENCE       CLEAR     67  62  84 CALM      30.18F
6HR MIN TEMP:  65; 6HR MAX TEMP:  83;

DARLINGTON     PTCLDY    69  63  81 CALM      30.19F
6HR MIN TEMP:  69; 6HR MAX TEMP:  82;

CHARLESTON APT CLEAR     69  65  86 N3        30.15F
6HR MIN TEMP:  69; 6HR MAX TEMP:  81;

MOUNT PLEASANT FAIR      70  66  88 CALM      30.16F
WALTERBORO     CLEAR     66  63  88 CALM      30.16F
BEAUFORT       CLEAR     80  72  76 E9        30.14F
6HR MIN TEMP:  76; 6HR MAX TEMP:  81;



...EASTERN GEORGIA...

CITY           SKY/WX    TMP DP  RH WIND       PRES   REMARKS
AUGUSTA BUSH F CLEAR     71  66  84 CALM      30.15F
6HR MIN TEMP:  71; 6HR MAX TEMP:  84;

AUGUSTA DANIEL CLEAR     74  63  68 SE6       30.17F
6HR MIN TEMP:  74; 6HR MAX TEMP:  86;

THOMSON        CLEAR     72  65  79 S3        30.22S
6HR MIN TEMP:  72; 6HR MAX TEMP:  82;

WASHINGTON     FAIR      75  70  83 SE6       30.17S
CLAXTON        FAIR      71  69  95 CALM      30.14F
6HR MIN TEMP:  71; 6HR MAX TEMP:  81;

SYLVANIA       MOCLDY    72  68  88 CALM      30.16F
6HR MIN TEMP:  72; 6HR MAX TEMP:  82;

STATESBORO     CLOUDY    74  72  92 CALM      30.15F
6HR MIN TEMP:  74; 6HR MAX TEMP:  82;

SAVANNAH       PTCLDY    79  70  74 E9        30.14F
6HR MIN TEMP:  77; 6HR MAX TEMP:  82;



...SOUTHERN NORTH CAROLINA...

CITY           SKY/WX    TMP DP  RH WIND       PRES   REMARKS
CHARLOTTE      PTCLDY    69  57  65 S6        30.19S
6HR MIN TEMP:  69; 6HR MAX TEMP:  80;

MONROE         CLEAR     69  55  60 S3        30.18S
6HR MIN TEMP:  65; 6HR MAX TEMP:  78;

WADESBORO      PTCLDY    67  59  75 S3        30.18S
6HR MIN TEMP:  63; 6HR MAX TEMP:  78;

ROCKINGHAM     PTCLDY    69  61  75 S3        30.18F
6HR MIN TEMP:  69; 6HR MAX TEMP:  81;

RUTHERFORDTON  CLEAR     62  62 100 CALM      30.21S
6HR MIN TEMP:  61; 6HR MAX TEMP:  77;

ASHEVILLE      CLEAR     61  56  83 CALM      30.25S
6HR MIN TEMP:  61; 6HR MAX TEMP:  73;


$$



USA.gov is the U.S. government's official web portal to all federal, state and local government web resources and services.